Владимировка

Россия / Сахалинская область     50°36′27″N   142°11′03″E
темп.,
°C
ветер,
м/с
пор.,
м/с
влажн.,
%
обл.,
%
осадки,
мм/ч
давл.,
гПа
погр.,
м
18 мая, вт
вт1823:00+7юв22630 0.0 100323
02:00+7юв34602 0.0 100368
05:00+8ююв24595 0.0 100362
08:00+11ююз3105325 0.0 1003369
11:00+14ююз4114439 0.0 1003541
14:00+17ююз613374 0.0 1002881
17:00+15юз4144171 0.0 1002750
20:00+14ююз7184556 0.1 1002664
19 мая, ср
ср1923:00+9ююз3106458 0.2 1004309
02:00+11ююв31059100 0.0 1002263
05:00+8ю397318 0.1 1003228
08:00+11юз276316 0.0 1003272
11:00+12зюз39605 0.0 1005618
14:00+13ююз475968 0.0 1004508
17:00+9ююз3578100 0.1 1006338
20:00+8зюз2393100 1.1 1007221
20 мая, чт
чт2023:00+6ю119664 1.5 100917
02:00+6юв009620 0.0 101020
05:00+5в11958 0.0 101010
08:00+9вюв12869 0.0 1009204
11:00+13юв248063 0.0 1007536
14:00+13юз486831 0.0 1005561
17:00+11юз3107896 0.4 1004367
20:00+9ююз31193100 0.6 1004335
21 мая, пт
пт2123:00+8ююз2499100 1.9 1005150
02:00+8ю139996 0.2 1005133
05:00+7зюз1299100 0.3 1007194
08:00+7ююз1298100 0.1 1008217
11:00+9сз1193100 0.1 1009349
14:00+11з118295 0.1 1008549
17:00+14юз226821 0.1 1007720
20:00+10ююз118643 0.0 1008223
22 мая, сб
сб2223:00+7вюв229274 0.0 100971
02:00+6в2285100 0.0 1010105
05:00+6в2285100 0.0 1011132
08:00+6в338497 0.0 1012144
11:00+11в2368100 0.0 1011617
14:00+9в2374100 0.0 1012398
17:00+10вюв246672 0.0 1012539
20:00+8в247397 0.0 1013347